Regional Weather Roundup
Issued by NWS Binghamton, NY

Home | Current Version | Previous Version | Text Only | Print | Product List | Glossary On
Versions: 1 2 3 4 5 6 7 8 9 10 11 12 13 14 15 16 17 18 19 20 21 22 23 24 25 26 27 28 29 30 31 32 33 34 35 36 37 38 39 40 41 42 43 44 45 46 47 48 49 50
000
ASUS41 KBGM 260410
RWRBGM

REGIONAL WEATHER ROUNDUP
NATIONAL WEATHER SERVICE BINGHAMTON NY
1200 AM EDT WED JUN 26 2019

Note: "fair" indicates few or no clouds below 12,000 feet with no
significant weather and/or obstructions to visibility.

* = Station(s) that does not report precipitation, such as rain,
snow, etc, also no thunder or fog.

NYZ009-015>018-022>025-036-037-044>046-055>057-062-260500
...Central New York...

CITY           SKY/WX    TMP DP  RH WIND       PRES   REMARKS
Binghamton     FAIR      66  56  70 NW6       30.00R
Cortland       FAIR      59  57  94 CALM      30.00R
Dansville      FAIR      63  59  87 S7        29.99R
Elmira         FAIR      58  55  90 CALM      29.99R
Endicott       CLEAR     63  63 100 SW3       29.98R
Ithaca         FAIR      59  59 100 E3        30.00R
Hamilton       CLEAR     61  57  88 CALM      29.99R
Hornell        CLEAR     61  57  88 CALM      30.04R
Monticello     FAIR      67  59  75 NW8       29.99R
Norwich        CLEAR     61  55  82 CALM      29.99R
Oneonta        CLEAR     63  57  82 CALM      30.00S
Penn Yan       FAIR      64  59  83 SW7       29.98S
Rome           FAIR      63  60  90 CALM      29.97R
Seneca Falls   CLEAR     64  59  82 S3        29.97R
Sidney         CLEAR     61  61 100 W3        29.99R
Skaneateles    FAIR      63  59  88 CALM      29.98R
Syracuse       FAIR      68  58  70 SW5       29.96R
$$

PAZ038>040-043-044-047-048-072-260500
...Northeast Pennsylvania...

CITY           SKY/WX    TMP DP  RH WIND       PRES   REMARKS
Hazleton       FAIR      61  55  82 CALM      30.04S
Scranton       FAIR      75  56  51 W5        29.98R
Towanda        CLEAR     64  61  88 SW7       30.01R
$$
&&
KEY
WCI = Wind Chill Index
VSB = Visibility
HX  = Heat Index
$$




USA.gov is the U.S. government's official web portal to all federal, state and local government web resources and services.